ジャコビニ彗星

205P/Giacobini (2008)

English version
Home page
Total 6,336 html files since Dec. 4, 1995
Updated on November 9, 2008

---------------------------------------------------------------------

・ プロフィール

符号 205P/2008 R6
再発見日 2008年9月10日
再発見光度 13.5等
再発見者 板垣公一 (山形県山形市), 金田宏 (北海道札幌市)

・ 写真集

・ 軌道要素

Epoch 2008 Sept. 11.0 TT = JDT 2454720.5
T 2008 Sept. 10.06550 TT                                MPC
q   1.5263869            (2000.0)            P               Q
n   0.14800643     Peri.  154.23384     +0.89785767     +0.44028253
a   3.5395576      Node   179.63113     -0.43563565     +0.88892757
e   0.5687634      Incl.   15.30348     -0.06382148     +0.12632917
P   6.66
From 363 observations 1896-2008, mean residual 0".8.  Nongravitational
   parameters A1 = +1.19 +/- 0.01, A2 = +0.0277 +/- 0.0002.

・ 星図

・ 光度変化

        A核:
        m1 = 8.5 + 5 logΔ + 30 log r

        B核:
        m1 = 14.0 + 5 logΔ + 30 log r

        C核:
        m1 = 15.0 + 5 logΔ + 30 log r

---------------------------------------------------------------------

軌道要素はM.P.E.C. 2008-S47に掲載されたものです。
星図はステラナビゲータ Ver.8 (アストロアーツ) で作成したものです。
光度グラフはComet for Windowsで作成したものです。

---------------------------------------------------------------------

Copyright(C) 1995-2008 Seiichi Yoshida (comet@aerith.net). All rights reserved.